{"data":{"norad_id":52290,"epoch":"2026-05-25T04:41:15.815616Z","epoch_age_seconds":61251,"freshness":"FRESH","line1":"1 52290U 22041AF  26145.19532194 -.00001005  00000+0 -45048-4 0  9991","line2":"2 52290  53.2137 115.6714 0001603  80.2421 279.8753 15.08844058226052","mean_motion":15.08844058,"eccentricity":0.0001603,"inclination_deg":53.2137,"raan_deg":115.6714,"arg_perigee_deg":80.2421,"mean_anomaly_deg":279.8753,"bstar":-4.5048e-5,"rev_number":22605,"period_min":95.437298000745,"perigee_km":538.62205107129,"apogee_km":540.83991954738,"semimajor_km":6917.8679853093,"source":"CELESTRAK","updated_at":"2026-05-25T13:38:17.085823Z"}}